Chehalis, WA
on Wednesday, November 7, 2012

Wednesday
Previous Day Next Day
Daily Summary
 ActualAverage (KOLM)Record (KOLM)
Temperature
Mean Temperature °F 45°F  
Max Temperature 53°F 53°F 73°F (2002)
Min Temperature 37°F 38°F 23°F (2003)
Degree Days
Heating Degree Days 20 20  
Month to date heating degree days 134  
Since 1 July heating degree days 928  
Cooling Degree Days 0 0  
Month to date cooling degree days 0  
Year to date cooling degree days 106  
Moisture
Dew Point 42°F   
Average Humidity 88    
Maximum Humidity 100    
Minimum Humidity 58    
Precipitation
Precipitation 0.10 in 0.27 in 1.17 in (1995)
Month to date precipitation 1.75  
Year to date precipitation 35.66  
Wind
Wind Speed 3 mph   
Max Wind Speed 8 mph   
Max Gust Speed mph   
Visibility 9 miles   
Events Fog , Rain   

Key: T is trace of precipitation, MM is missing value
Source: NWS Daily Summary
Time(PST)TemperatureDew PointHumidity Pressure Visibility Wind DirectionWind SpeedGust SpeedPrecipitationEvents Conditions
12:15 AM 48.2°F 46.4°F 93% 30.11 in 10.0 miles SW 3.5 mph - N/A Rain Light Rain
12:55 AM 48.2°F 46.4°F 93% 30.11 in 9.0 miles Calm Calm - 0.07 in Rain Light Rain
1:15 AM 46.4°F 46.4°F 100% 30.12 in 10.0 miles South 3.5 mph - N/A   Unknown
1:35 AM 46.4°F 46.4°F 100% 30.12 in 10.0 miles South 3.5 mph - N/A   Unknown
1:55 AM 46.4°F 44.6°F 93% 30.12 in 9.0 miles Calm Calm - N/A   Unknown
2:15 AM 46.4°F 44.6°F 93% 30.13 in 8.0 miles Calm Calm - N/A   Unknown
2:35 AM 44.6°F 44.6°F 100% 30.13 in 10.0 miles WSW 3.5 mph - N/A   Unknown
2:55 AM 44.6°F 44.6°F 100% 30.14 in 10.0 miles SW 3.5 mph - N/A   Unknown
3:15 AM 44.6°F 44.6°F 100% 30.14 in 9.0 miles SW 3.5 mph - N/A   Unknown
3:35 AM 42.8°F 42.8°F 100% 30.14 in 3.0 miles Calm Calm - N/A   Mist
4:15 AM 41.0°F 41.0°F 100% 30.15 in 1.8 miles SW 4.6 mph - 0.01 in   Mist
4:35 AM 41.0°F 41.0°F 100% 30.15 in 2.0 miles WSW 3.5 mph - 0.01 in   Mist
4:55 AM 41.0°F 39.2°F 93% 30.15 in 1.0 miles Calm Calm - 0.01 in   Mist
5:15 AM 39.2°F 39.2°F 100% 30.16 in 0.5 miles SW 3.5 mph - N/A Fog Fog
5:35 AM 39.2°F 39.2°F 100% 30.16 in 2.0 miles SW 4.6 mph - N/A   Mist
5:55 AM 41.0°F 41.0°F 100% 30.17 in 10.0 miles NW 6.9 mph - N/A   Unknown
6:15 AM 44.6°F 44.6°F 100% 30.17 in 5.0 miles Calm Calm - 0.01 in Rain Light Rain
6:35 AM 44.6°F 42.8°F 93% 30.16 in 10.0 miles SSW 3.5 mph - 0.01 in   Unknown
6:55 AM 44.6°F 42.8°F 93% 30.16 in 10.0 miles SSW 4.6 mph - 0.01 in   Unknown
7:15 AM 44.6°F 42.8°F 93% 30.17 in 10.0 miles SW 3.5 mph - N/A   Unknown
7:35 AM 42.8°F 41.0°F 93% 30.18 in 10.0 miles SW 4.6 mph - N/A   Unknown
8:15 AM 44.6°F 42.8°F 93% 30.17 in 10.0 miles SW 4.6 mph - N/A   Unknown
8:35 AM 44.6°F 42.8°F 93% 30.18 in 10.0 miles Calm Calm - N/A   Unknown
8:55 AM 44.6°F 42.8°F 93% 30.18 in 10.0 miles SW 3.5 mph - N/A   Unknown
9:15 AM 44.6°F 44.6°F 100% 30.18 in 10.0 miles Calm Calm - N/A   Unknown
9:35 AM 46.4°F 44.6°F 93% 30.17 in 10.0 miles South 3.5 mph - N/A   Unknown
10:15 AM 48.2°F 44.6°F 87% 30.17 in 10.0 miles SSW 6.9 mph - N/A   Unknown
10:35 AM 50.0°F 44.6°F 82% 30.17 in 10.0 miles SW 8.1 mph - 0.01 in   Unknown
11:15 AM 50.0°F 42.8°F 76% 30.17 in 10.0 miles WSW 4.6 mph - N/A   Unknown
11:35 AM 51.8°F 42.8°F 71% 30.16 in 10.0 miles SSW 4.6 mph - N/A   Unknown
11:55 AM 53.6°F 41.0°F 62% 30.16 in 10.0 miles South 3.5 mph - N/A   Unknown
12:15 PM 53.6°F 41.0°F 62% 30.15 in 10.0 miles SSW 5.8 mph - N/A   Unknown
12:35 PM 53.6°F 39.2°F 58% 30.15 in 10.0 miles WSW 3.5 mph - N/A   Unknown
12:55 PM 51.8°F 39.2°F 62% 30.15 in 10.0 miles SW 4.6 mph - N/A   Unknown
1:15 PM 50.0°F 39.2°F 66% 30.14 in 10.0 miles WSW 4.6 mph - N/A   Unknown
1:35 PM 51.8°F 39.2°F 62% 30.14 in 10.0 miles SSW 3.5 mph - N/A   Unknown
1:55 PM 53.6°F 39.2°F 58% 30.13 in 10.0 miles SSW 3.5 mph - N/A   Unknown
2:15 PM 53.6°F 39.2°F 58% 30.13 in 10.0 miles SSW 3.5 mph - N/A   Unknown
2:35 PM 53.6°F 39.2°F 58% 30.12 in 10.0 miles SSW 4.6 mph - N/A   Unknown
3:15 PM 53.6°F 39.2°F 58% 30.11 in 10.0 miles SSE 4.6 mph - N/A   Unknown
3:35 PM 50.0°F 41.0°F 71% 30.10 in 10.0 miles SE 4.6 mph - N/A   Unknown
3:55 PM 50.0°F 41.0°F 71% 30.10 in 10.0 miles Calm Calm - N/A   Unknown
4:15 PM 50.0°F 41.0°F 71% 30.09 in 10.0 miles SSE 3.5 mph - N/A   Unknown
4:35 PM 48.2°F 41.0°F 76% 30.09 in 10.0 miles SSE 3.5 mph - N/A   Unknown
4:55 PM 46.4°F 42.8°F 87% 30.08 in 10.0 miles Calm Calm - N/A   Unknown
5:15 PM 44.6°F 42.8°F 93% 30.07 in 10.0 miles Calm Calm - N/A   Unknown
5:35 PM 44.6°F 41.0°F 87% 30.07 in 10.0 miles Calm Calm - N/A   Unknown
5:55 PM 44.6°F 42.8°F 93% 30.07 in 10.0 miles Calm Calm - N/A   Unknown
6:15 PM 44.6°F 41.0°F 87% 30.06 in 10.0 miles Calm Calm - N/A   Unknown
6:55 PM 42.8°F 41.0°F 93% 30.06 in 10.0 miles Calm Calm - N/A   Unknown
7:15 PM 44.6°F 41.0°F 87% 30.05 in 10.0 miles Calm Calm - N/A   Unknown
7:35 PM 42.8°F 41.0°F 93% 30.05 in 10.0 miles SW 3.5 mph - N/A   Unknown
7:55 PM 42.8°F 41.0°F 93% 30.04 in 10.0 miles SW 3.5 mph - N/A   Unknown
8:15 PM 41.0°F 41.0°F 100% 30.03 in 10.0 miles WSW 3.5 mph - N/A   Unknown
8:35 PM 41.0°F 39.2°F 93% 30.03 in 10.0 miles Calm Calm - N/A   Unknown
9:15 PM 41.0°F 39.2°F 93% 30.02 in 10.0 miles Calm Calm - N/A   Unknown
9:35 PM 39.2°F 39.2°F 100% 30.01 in 10.0 miles Calm Calm - N/A   Unknown
9:55 PM 39.2°F 39.2°F 100% 30.00 in 10.0 miles SW 3.5 mph - N/A   Unknown
10:15 PM 39.2°F 37.4°F 93% 29.99 in 10.0 miles Calm Calm - N/A   Unknown
10:35 PM 37.4°F 37.4°F 100% 29.98 in 10.0 miles Calm Calm - N/A   Unknown
10:55 PM 39.2°F 39.2°F 100% 29.98 in 10.0 miles Calm Calm - N/A   Unknown
11:15 PM 39.2°F 39.2°F 100% 29.97 in 10.0 miles Calm Calm - N/A   Unknown
11:35 PM 39.2°F 39.2°F 100% 29.96 in 10.0 miles Calm Calm - N/A   Unknown
11:55 PM 39.2°F 39.2°F 100% 29.96 in 10.0 miles Calm Calm - N/A   Unknown
Moon Phase
Nov. 07 Nov. 13 Nov. 20 Nov. 28 Dec. 06
Sunrise:07:03 AM (PST) Moon Rise:No Moon Rise/
Sunset:04:47 PM (PST) Moon Set:01:21 PM (PST)11/7

Copyright © 2014 The Weather Underground, Inc.